This demonstration page uses our WeatherBlox Daily Observations layout. Learn more.

Left ArrowRight Arrow

31.84235, -102.49876

Hourly Observations for May 1, 2015

Temp ( °F °C ) Dew Point ( °F °C ) Humidity (%) Winds ( mph kmh ) Pressure ( in mb ) Visibility ( mi km ) Precip ( " mm )
12:53 am 00:53 Clear 66 18.9 26 -3.3 22 22 S 13 20 29.89 1012 10 16 0.00 0.00
1:53 am 01:53 Clear 64 17.8 29 -1.7 27 27 S 10 17 29.89 1012 10 16 0.00 0.00
2:53 am 02:53 Clear 59 15 31 -0.6 35 35 SSW 8 13 29.89 1012 10 16 0.00 0.00
3:53 am 03:53 Clear 58 14.4 32 0 38 38 S 12 19 29.87 1012 10 16 0.00 0.00
4:53 am 04:53 Clear 61 16.1 32 0 34 34 S 12 19 29.87 1012 10 16 0.00 0.00
5:53 am 05:53 Clear 58 14.4 33 0.6 39 39 S 8 13 29.88 1012 10 16 0.00 0.00
6:53 am 06:53 Clear 58 14.4 35 1.7 42 42 S 8 13 29.90 1013 10 16 0.00 0.00
7:53 am 07:53 Sunny 60 15.6 37 2.8 42 42 S 8 13 29.93 1014 10 16 0.00 0.00
8:53 am 08:53 Sunny 63 17.2 38 3.3 40 40 S 10 17 29.95 1014 10 16 0.00 0.00
9:53 am 09:53 Sunny 69 20.6 38 3.3 32 32 S 13 20 29.96 1014 10 16 0.00 0.00
10:53 am 10:53 Sunny 74 23.3 37 2.8 26 26 SSE 13 20 29.96 1015 10 16 0.00 0.00
11:53 am 11:53 Sunny 80 26.7 31 -0.6 17 17 S 15 24 29.96 1015 10 16 0.00 0.00
12:53 pm 12:53 Sunny 82 27.8 28 -2.2 14 14 SSE 17 28 29.96 1015 10 16 0.00 0.00
1:53 pm 13:53 Sunny 83 28.3 30 -1.1 15 15 SSE 16 26 29.95 1014 10 16 0.00 0.00
2:53 pm 14:53 Sunny 83 28.3 30 -1.1 15 15 SSE 20 31 29.94 1014 10 16 0.00 0.00
3:53 pm 15:53 Sunny 84 28.9 31 -0.6 15 15 SE 20 31 29.92 1013 10 16 0.00 0.00
4:53 pm 16:53 Sunny 84 28.9 32 0 15 15 SSE 14 22 29.89 1012 10 16 0.00 0.00
5:53 pm 17:53 Sunny 84 28.9 31 -0.6 15 15 SSE 13 20 29.89 1012 10 16 0.00 0.00
6:53 pm 18:53 Sunny 83 28.3 31 -0.6 15 15 S 12 19 29.89 1012 10 16 0.00 0.00
7:53 pm 19:53 Sunny 80 26.7 30 -1.1 16 16 SSE 14 22 29.90 1013 10 16 0.00 0.00
8:53 pm 20:53 Clear 75 23.9 30 -1.1 19 19 SSE 10 17 29.91 1013 10 16 0.00 0.00
9:53 pm 21:53 Clear 72 22.2 30 -1.1 21 21 SSE 9 15 29.93 1013 10 16 0.00 0.00
10:53 pm 22:53 Clear 72 22.2 30 -1.1 21 21 S 15 24 29.94 1014 10 16 0.00 0.00
11:53 pm 23:53 Clear 68 20 30 -1.1 24 24 S 14 22 29.93 1014 10 16 0.00 0.00

Powered by AerisWeather